Location: Alexander
(41.3564°N, 81.5960°W)
Time: 15:20:01
(UTC+00:00)

Daily predictions for brighter satellites

Satellite Brightness Start Highest point End
(mag) Time Altitude Azimuth Time Altitude Azimuth Time Altitude Azimuth
BREEZE-M DEB (TANK) 3.4 12:00:58 10° WNW 12:07:26 35° SW 12:10:07 10° SSE
CZ-4B DEB 4.4 12:06:32 10° N 12:11:53 49° WNW 12:17:12 10° SW
Cosmos 2279 Rocket 4.0 12:08:30 10° SSW 12:14:39 62° W 12:20:53 10° N
Cosmos 1825 Rocket 4.0 12:11:19 10° NNW 12:15:34 44° W 12:19:48 10° SSW
Cosmos 1892 Rocket 3.5 22:54:27 10° S 22:58:47 82° E 23:03:07 10° N
Landsat 5 4.0 22:56:11 10° N 23:00:00 56° WNW 23:03:43 10° SSW
Cosmos 2263 Rocket 4.1 22:56:33 10° WSW 23:01:15 26° NW 23:05:57 10° N
Okean-O 4.1 22:59:31 10° ESE 23:02:18 17° ENE 23:05:08 10° NNE
X-37B 1.0 22:59:48 10° W 23:02:55 53° NNW 23:06:04 10° ENE
SJ 16-02 1.4 22:59:51 10° S 23:04:11 66° ESE 23:08:34 10° NNE
CZ-4B R/B 2.0 23:03:01 10° NNE 23:06:07 35° E 23:09:07 10° SSE
Cosmos 1818 3.8 23:01:57 10° SW 23:07:22 76° WNW 23:12:51 10° NNE
NOSS 2-1 (E) 3.9 23:05:47 10° S 23:08:46 29° ESE 23:11:43 10° NE
Cosmos 2279 Rocket 4.3 23:03:49 10° N 23:10:05 77° W 23:16:18 10° S
COSMOS 2455 3.6 23:05:57 10° SW 23:11:49 53° NW 23:17:43 10° NNE
Cosmos 1703 4.2 23:08:50 10° SSE 23:12:08 27° E 23:15:27 10° NNE
NOAA 11 4.3 23:06:52 10° SSE 23:12:22 86° WSW 23:17:54 10° NNW
FengYun 1-2 T 4.4 23:10:46 10° SSE 23:16:20 85° WSW 23:21:59 10° NNW
CZ-2C R/B 3.5 23:12:19 10° SE 23:17:22 44° ENE 23:22:41 10° N
Cosmos 1538 Rocket 4.3 23:12:21 10° NNW 23:17:30 74° WSW 23:22:39 10° S
CZ-2C R/B 4.3 23:15:51 10° ENE 23:18:37 14° E 23:21:23 10° ESE
Cosmos 44 3.4 23:14:54 10° SSW 23:19:32 62° ESE 23:24:31 10° NE
SKYMED 2 3.7 23:15:34 10° NNE 23:19:50 53° E 23:24:04 10° S
Cosmos 1689 Rocket 3.6 23:22:31 14° ENE 23:23:41 17° E 23:25:42 10° SE
Meteor 2-1 Rocket 4.1 23:23:48 10° N 23:29:20 69° ENE 23:34:48 10° SSE
BREEZE-M DEB (TANK) 3.8 23:26:46 10° WNW 23:29:34 32° SW 23:31:38 10° SSE
Cosmos 990 Rocket 4.0 23:31:21 10° S 23:36:30 66° ESE 23:41:38 10° NNE
COSMOS 2406 4.2 23:32:07 10° N 23:36:56 26° NE 23:41:00 13° ESE
Cosmos 489 Rocket 4.5 23:30:36 10° NNW 23:36:59 86° ENE 23:43:19 10° SSE
Cosmos 1833 Rocket 3.8 23:32:59 10° N 23:37:22 23° NE 23:40:04 16° E
Cosmos 2058 Rocket 3.9 23:33:14 10° NNW 23:37:41 57° W 23:42:05 10° S
Helios 1A Rocket 3.8 23:37:23 10° SE 23:40:56 28° ENE 23:44:30 10° N
EXPRESS MD2 4.3 23:33:25 10° WNW 23:41:27 73° SW 23:45:18 10° SE
Meteor 2-10 Rocket 4.4 23:37:22 10° NNW 23:42:37 55° W 23:47:40 10° S
NOSS 3-1 (C) 4.2 23:37:31 10° NNW 23:44:55 55° NE 23:53:24 10° SE
Cosmos 1844 4.2 23:39:29 10° SW 23:45:05 62° WNW 23:50:46 10° NNE
Cosmos 405 4.0 23:42:15 10° NNE 23:45:14 25° ENE 23:45:40 24° E
MOS 1 Rocket 3.0 23:41:11 10° NNE 23:45:29 80° ESE 23:49:49 10° S
Hubble Space Telescope 3.4 23:44:00 10° SSW 23:45:42 12° S 23:47:23 10° SSE
Cosmos 1626 Rocket 3.6 23:43:42 10° S 23:48:05 87° W 23:52:32 10° N
Cosmos 2082 Rocket 3.7 23:45:02 10° N 23:48:38 17° NE 23:48:45 17° NE
CREW DRAGON DEMO-1 DEB 2.6 23:46:08 10° NW 23:49:02 87° SW 23:50:36 24° SE
Cosmos 158 Rocket 4.2 23:45:14 10° NNW 23:50:37 78° WSW 23:56:00 10° SSE
Cosmos 1328 3.8 23:47:07 10° S 23:51:03 60° E 23:54:59 10° NNE
Cosmos 1092 Rocket 3.9 23:46:41 10° S 23:52:51 76° E 23:59:00 10° N
Cosmos 1844 Rocket 3.8 23:48:01 10° SW 23:53:22 43° WNW 23:58:45 10° NNE
